Location: Recife
(8.0585°S, 34.8848°W)
Time: 11:29:07
(UTC-03:00)

Vanguard 2 - Pass Details

Date: 15 April 2026
Orbit: 554 x 2894 km, 32.9° (Epoch: 7 May)

Event Time Altitude Azimuth Distance (km) Brightness Sun altitude
Rises 23:29:18 0° 259° (W) 6,274 - -86.8°
Reaches altitude 10° 23:34:10 10° 249° (WSW) 5,485 - -85.8°
Maximum altitude 23:48:24 31° 193° (SSW) 4,224 - -82.6°
Drops below altitude 10° 00:02:12 10° 137° (SE) 5,290 - -79.2°
Exits shadow 00:04:00 - 132° (SE) 5,562 11.9 -78.8°
Sets 00:06:50 0° 126° (SE) 6,028 12.2 -78.1°
